METAR AND TAF INFORMATION
METAR FOR HESH
ADDS - METARS form results

(0202 UTC 21 September 2018)
Data provider http://aviationweather.gov/metar/data/
 
Forecast for: HESH (SHARM EL SHEIKHI, EG)
Text: TAF HESH 201700Z 2018/2124 34006G18KT CAVOK
Forecast period: 1800 UTC 20 September 2018 to 0000 UTC 22 September 2018
Forecast type: FROM: standard forecast or significant change
Winds: from the NNW (340 degrees) at 7 MPH (6 knots; 3.1 m/s)
gusting to 21 MPH (18 knots; 9.3 m/s)
Visibility: 6 or more miles 10+ km)
Ceiling: unknown
Clouds: missing
Weather: NSW  (no significant weather)

 AIRPORT MAP

 RUNWAY INFORMATION
Runway 04L Runway length 10108 ft Runway width 148 ft
Runway elevation 134 ft Runway displaced threshold 0 ft Runway heading 43
Runway 22R Runway length 10108 ft Runway width 148 ft
Runway elevation 119 ft Runway displaced threshold 0 ft Runway heading 223
Runway 04R Runway length 10108 ft Runway width 148 ft
Runway elevation 114 ft Runway displaced threshold 0 ft Runway heading 43
Runway 22L Runway length 10108 ft Runway width 148 ft
Runway elevation 117 ft Runway displaced threshold 0 ft Runway heading 223

 AIRPORT FREQUENCIES
Type APP Name RADAR Frequency 121.1 MHZ
Type GND Name GND Frequency 121.9 MHZ
Type RDO Name RDO Frequency 317.5 MHZ
Type TWR Name TWR Frequency 118.9 MHZ

 AIRPORT NEAR NAVIGATION AIDS
Type VOR-DME Name Sharm El Sheikh Frequency 114200 KHZ
Type NDB Name Sharm El Sheikh Frequency 335 KHZ



Powered by Virtual Airlines Manager [v2.6.2]